Regional Weather Roundup
Issued by NWS Charleston, SC

Current Version | Previous Version | Graphics & Text | Print | Product List | Glossary On
Versions: 1 2 3 4 5 6 7 8 9 10 11 12 13 14 15 16 17 18 19 20 21 22 23 24 25 26 27 28 29 30 31 32 33 34 35 36 37 38 39 40 41 42 43 44 45 46 47 48 49 50
000
ASUS42 KCHS 262126
RWRCHS

REGIONAL WEATHER ROUNDUP
NATIONAL WEATHER SERVICE CHARLESTON SC
500 PM EDT SUN APR 26 2015

NOTE: "FAIR" INDICATES FEW OR NO CLOUDS BELOW 12,000 FEET WITH NO
SIGNIFICANT WEATHER AND/OR OBSTRUCTIONS TO VISIBILITY.

NOT ALL STATIONS ARE QUALITY CONTROLLED BY THE NATIONAL
WEATHER SERVICE. USE DATA WITH CAUTION...ESPECIALLY
DEWPOINT OBSERVATIONS.

SCZ027-030-031-034>040-042>050-262200-
...SOUTHEAST SOUTH CAROLINA...

CITY           SKY/WX    TMP DP  RH WIND       PRES   REMARKS
N CHARLESTON   MOSUNNY   87  56  34 W13       29.57F
WATERFRONT PRK   N/A     86 N/A N/A W12G21      N/A
MOUNT PLEASANT FAIR      86  55  35 MISG      29.57S
PINOPOLIS      NOT AVBL
MONCKS CORNER  MOCLDY    86  55  35 CALM      29.57R
SUMMERVILLE    FAIR      86  59  39 W8G17     29.57F
BEAUFORT MCAS  MOSUNNY   87  56  34 W15G21    29.59F
BEAUFORT ARPT  FAIR      88  59  37 W14G20    29.59F
HILTON HEAD IS SUNNY     88  59  37 W14G21    29.61F
WALTERBORO     CLEAR     84  54  34 W15G26    29.59S
ALLENDALE      FAIR      84  63  48 VRB6G15   29.59S

...SOUTHERN MIDLANDS AND PEE DEE...

CITY           SKY/WX    TMP DP  RH WIND       PRES   REMARKS
GEORGETOWN     NOT AVBL
KINGSTREE      NOT AVBL
ORANGEBURG     MOSUNNY   85  55  35 W17G24    29.57F
BARNWELL       FAIR      86  61  42 SW13G23   29.59S
AIKEN          FAIR      82  52  34 W22G30    29.62S
MANNING        FAIR      73  50  43 NE9G16    29.59R
COLUMBIA       PTSUNNY   73  59  61 NE14      29.60R
SUMTER         PTSUNNY   66  57  72 NE20      29.62R
FLORENCE       CLOUDY    62  53  72 NE8       29.65R
MYRTLE BEACH   PTSUNNY   70  55  60 NE9       29.65R
N MYRTLE BEACH PTSUNNY   65  55  70 N7        29.65R

$$

GAZ063-065-086>088-099>101-113>116-118-119-134>141-150-262200-
...SOUTHEAST GEORGIA...

CITY           SKY/WX    TMP DP  RH WIND       PRES   REMARKS
SAVANNAH ARPT  MOSUNNY   87  55  33 W14G21    29.61F
HUNTER AAF     SUNNY     88  55  32 W20G29    29.59F
FORT STEWART   SUNNY     87  52  29 W18G26    29.61S
STATESBORO       N/A     85  59  41 W13G18    29.62R
SYLVANIA       CLEAR     85  62  44 W13G22    29.63R
CLAXTON        FAIR      86  57  37 W13G20    29.62S

...CSRA...CENTRAL AND FAR SOUTHEAST GEORGIA...

CITY           SKY/WX    TMP DP  RH WIND       PRES   REMARKS
THOMSON        PTSUNNY   82  67  61 W3        29.65S
AUGUSTA-BUSH   MOSUNNY   82  58  43 W10       29.59S
AUGUSTA-DANIEL MOSUNNY   84  60  44 SW12G21   29.61S
SWAINSBORO     NOT AVBL
VIDALIA        SUNNY     86  55  35 W12G18    29.64F
EASTMAN        FAIR      85  60  43 W9G18     29.67S
HAZLEHURST     FAIR      88  51  27 SW10G23   29.64S
ALMA           SUNNY     86  59  39 W13       29.66S
WAYCROSS       MOSUNNY   91  64  41 W9G18     29.65F HX  92
JESUP          FAIR      90  61  37 W9G17     29.64F
BAXLEY         FAIR      88  59  37 W9G18     29.65S
BRUNSWICK      MOSUNNY   90  55  31 W14G21    29.65S
SAINT SIMONS   MOSUNNY   88  58  36 W13G21    29.64F

$$

SCZ027-028-034-036>038-045-046-048>050-GAZ119-141-262200-
...LAKE AND SUPPLEMENTAL COASTAL OBSERVATIONS...

STATION/POSITION TIME  TEMP    WIND        PRES    WAVE   SWELL
                       AIR SEA DIR/SP/G            HT/PER HT/PER/DIR
                 (UTC) (F)     (DEG/KT/KT) (MB)    (FT/S) (FT/S/D)
UPR LAKE MARION  NOT AVBL
WINYAH BAY       2045   67      80/ 14     1002.0R
LAKE MURRAY      2000   73      30/  5/  8 1001.7S
ACE BASIN NERRS  2000   85     250/  7     1002.0
FORT PULASKI     2006   84 70  270/ 19/ 24 1003.1F
SAPELO ISLAND    2100   87     260/ 13     1003.0S

$$

ANZ835-935-AMZ111-154-330-350-352-354-370-450-454-472-262200-
...C-MAN AND BUOY OBSERVATIONS...

STATION/POSITION TIME  TEMP    WIND        PRES    WAVE   SWELL
                       AIR SEA DIR/SP/G            HT/PER HT/PER/DIR
                 (UTC) (F)     (DEG/KT/KT) (MB)    (FT/S) (FT/S/D)
BUOY 41004       2050   73 72  230/ 16/ 17 1001.4F   5/ 7   2/12
BUOY 41008       2050   74 72  200/ 10/ 10 1003.6F   2/ 5   2/150/ 5
FOLLY BEACH CMAN 2100   74     220/ 13/ 15 1001.8F
CAPERS NEARSHORE 2008   73     230/ 16/ 21 1001.8F
FRIPP NEARSHORE  2000   74     210/ 10/ 12 1002.4F


STATION/POSITION TIME  TEMP    WIND        PRES    WAVE   SWELL
                       AIR SEA DIR/SP/G            HT/PER HT/PER/DIR
                 (UTC) (F)     (DEG/KT/KT) (MB)    (FT/S) (FT/S/D)
5E ST. MARYS GA  2021      71                N/A     1/13
FRYING PAN BUOY  2050   63 72   30/ 16/ 19 1003.8S   5/ 8   3/200/ 8
BUOY 41025       2050   55 76  360/ 23/ 29 1002.9R   8/ 8
CAPE LOOKOUT NC  2100   54     350/ 15/ 17 1004.0R
BUOY 41002       2050   72 71  280/ 12/ 14 1002.3R   8/ 8   7/260/ 8
BUOY 41010       2020   79 79  250/ 14/ 16 1006.6F
ST AUGUSTINE FL  2100   87 68  250/ 15/ 20 1005.3F


$$



USA.gov is the U.S. government's official web portal to all federal, state and local government web resources and services.